Location: F?ge?el
(45.8833°N, 22.5833°E)
Time: 12:26:01
(UTC+00:00)

Cosmos 676 Rocket - Pass Details

Date: 17 November 2025
Orbit: 750 x 779 km, 74.0° (Epoch: 11 December)

Event Time Altitude Azimuth Distance (km) Brightness Sun altitude
Rises 16:53:44 0° 190° (S) 3,247 7.5 -20.3°
Reaches altitude 10° 16:56:07 10° 188° (S) 2,323 6.6 -20.7°
Maximum altitude 17:01:21 64° 107° (ESE) 858 3.9 -21.6°
Enters shadow 17:03:01 42° 44° (NE) 1,104 4.4 -21.9°
